| time (UTC) | temp C | wind direction | speed KPH | gust KPH | rain 1hr cm | rain 24hr cm | rain mn cm | humidity % | barometer mb |
| 20260510205652 | 23 | 202 | 3.2 | 8.0 | 0.00 | 0.00 | 0.00 | 83 | 1013.6 |
| 20260510205152 | 23 | 177 | 3.2 | 6.4 | 0.00 | 0.00 | 0.00 | 83 | 1013.7 |
| 20260510204652 | 23 | 194 | 3.2 | 8.0 | 0.00 | 0.00 | 0.00 | 82 | 1013.6 |
| 20260510204152 | 23 | 169 | 3.2 | 8.0 | 0.00 | 0.00 | 0.00 | 81 | 1013.6 |
| 20260510203652 | 24 | 193 | 3.2 | 6.4 | 0.00 | 0.00 | 0.00 | 81 | 1013.6 |
| 20260510203153 | 24 | 145 | 3.2 | 4.8 | 0.00 | 0.00 | 0.00 | 81 | 1013.6 |
| 20260510202653 | 24 | 167 | 3.2 | 6.4 | 0.00 | 0.00 | 0.00 | 81 | 1013.6 |
| 20260510202153 | 23 | 163 | 3.2 | 8.0 | 0.00 | 0.00 | 0.00 | 82 | 1013.8 |
| 20260510201653 | 23 | 223 | 3.2 | 6.4 | 0.00 | 0.00 | 0.00 | 82 | 1013.8 |
| 20260510201153 | 23 | 188 | 3.2 | 8.0 | 0.00 | 0.00 | 0.00 | 82 | 1013.8 |
| 20260510200653 | 23 | 196 | 1.6 | 6.4 | 0.00 | 0.00 | 0.00 | 80 | 1013.9 |
| 20260510200153 | 23 | 192 | 3.2 | 4.8 | 0.00 | 0.00 | 0.00 | 80 | 1013.8 |
| 20260510195653 | 23 | 189 | 3.2 | 6.4 | 0.00 | 0.00 | 0.00 | 79 | 1013.6 |
| 20260510195153 | 24 | 168 | 3.2 | 8.0 | 0.00 | 0.00 | 0.00 | 79 | 1013.9 |
| 20260510194653 | 24 | 158 | 3.2 | 6.4 | 0.00 | 0.00 | 0.00 | 77 | 1014.0 |
| 20260510194153 | 25 | 180 | 1.6 | 6.4 | 0.00 | 0.00 | 0.00 | 77 | 1014.0 |
| 20260510193653 | 25 | 157 | 1.6 | 8.0 | 0.00 | 0.00 | 0.00 | 76 | 1014.0 |
| 20260510193153 | 25 | 118 | 1.6 | 3.2 | 0.00 | 0.00 | 0.00 | 76 | 1014.1 |
| 20260510192653 | 25 | 108 | 1.6 | 4.8 | 0.00 | 0.00 | 0.00 | 75 | 1014.1 |
| 20260510192153 | 25 | 96 | 3.2 | 6.4 | 0.00 | 0.00 | 0.00 | 76 | 1014.0 |
| 20260510191653 | 25 | 149 | 4.8 | 9.7 | 0.00 | 0.00 | 0.00 | 75 | 1014.0 |
| 20260510191153 | 25 | 131 | 4.8 | 8.0 | 0.00 | 0.00 | 0.00 | 76 | 1014.0 |
| 20260510190653 | 25 | 216 | 3.2 | 11.3 | 0.00 | 0.00 | 0.00 | 77 | 1014.1 |
| 20260510190153 | 25 | 212 | 3.2 | 4.8 | 0.00 | 0.00 | 0.00 | 78 | 1014.0 |
| 20260510185653 | 25 | 294 | 4.8 | 8.0 | 0.00 | 0.00 | 0.00 | 76 | 1014.0 |
| 20260510185153 | 25 | 199 | 4.8 | 9.7 | 0.00 | 0.00 | 0.00 | 77 | 1014.0 |
| 20260510184653 | 25 | 226 | 6.4 | 11.3 | 0.00 | 0.00 | 0.00 | 76 | 1013.9 |
| 20260510184153 | 25 | 198 | 4.8 | 11.3 | 0.00 | 0.00 | 0.00 | 79 | 1013.9 |
| 20260510183653 | 25 | 226 | 4.8 | 9.7 | 0.00 | 0.00 | 0.00 | 79 | 1013.8 |
| 20260510183153 | 25 | 245 | 4.8 | 8.0 | 0.00 | 0.00 | 0.00 | 78 | 1013.8 |
| 20260510182653 | 25 | 201 | 4.8 | 12.9 | 0.00 | 0.00 | 0.00 | 78 | 1013.8 |
| 20260510182153 | 25 | 169 | 3.2 | 9.7 | 0.00 | 0.00 | 0.00 | 81 | 1013.8 |
| 20260510181653 | 25 | 177 | 3.2 | 9.7 | 0.00 | 0.00 | 0.00 | 81 | 1013.8 |
| 20260510181153 | 25 | 179 | 4.8 | 11.3 | 0.00 | 0.00 | 0.00 | 81 | 1013.9 |
| 20260510180653 | 25 | 86 | 4.8 | 11.3 | 0.00 | 0.00 | 0.00 | 81 | 1013.8 |
| 20260510180157 | 24 | 165 | 4.8 | 11.3 | 0.00 | 0.00 | 0.00 | 82 | 1014.0 |
| 20260510175700 | 24 | 185 | 4.8 | 12.9 | 0.00 | 0.00 | 0.00 | 81 | 1014.1 |
| 20260510175153 | 24 | 172 | 4.8 | 9.7 | 0.00 | 0.00 | 0.00 | 82 | 1014.2 |
| 20260510174653 | 24 | 88 | 4.8 | 9.7 | 0.00 | 0.00 | 0.00 | 82 | 1014.2 |
| 20260510174155 | 23 | 124 | 6.4 | 11.3 | 0.00 | 0.00 | 0.00 | 82 | 1014.5 |
| 20260510173653 | 23 | 160 | 4.8 | 9.7 | 0.00 | 0.00 | 0.00 | 84 | 1014.5 |
| 20260510173153 | 23 | 242 | 4.8 | 11.3 | 0.00 | 0.00 | 0.00 | 84 | 1014.6 |
| 20260510172653 | 23 | 173 | 4.8 | 9.7 | 0.00 | 0.00 | 0.00 | 86 | 1014.6 |
| 20260510172153 | 23 | 210 | 3.2 | 12.9 | 0.00 | 0.00 | 0.00 | 84 | 1014.7 |
| 20260510171653 | 24 | 193 | 4.8 | 12.9 | 0.00 | 0.00 | 0.00 | 86 | 1014.5 |
| 20260510171153 | 23 | 158 | 6.4 | 9.7 | 0.00 | 0.00 | 0.00 | 84 | 1014.6 |
| 20260510170653 | 23 | 188 | 4.8 | 9.7 | 0.00 | 0.00 | 0.00 | 84 | 1014.7 |
| 20260510170153 | 23 | 176 | 3.2 | 6.4 | 0.00 | 0.00 | 0.00 | 85 | 1014.6 |
| 20260510165653 | 23 | 203 | 4.8 | 8.0 | 0.00 | 0.00 | 0.00 | 86 | 1014.6 |
| 20260510165153 | 23 | 132 | 3.2 | 12.9 | 0.00 | 0.00 | 0.00 | 87 | 1014.8 |
| 20260510164653 | 23 | 134 | 1.6 | 8.0 | 0.00 | 0.00 | 0.00 | 87 | 1014.9 |
| 20260510164153 | 22 | 203 | 1.6 | 4.8 | 0.00 | 0.00 | 0.00 | 92 | 1014.8 |
| 20260510163653 | 22 | 205 | 1.6 | 3.2 | 0.00 | 0.00 | 0.00 | 91 | 1014.9 |
| 20260510163153 | 22 | 201 | 1.6 | 8.0 | 0.00 | 0.00 | 0.00 | 91 | 1015.0 |
| 20260510162653 | 22 | 233 | 1.6 | 4.8 | 0.00 | 0.00 | 0.00 | 92 | 1015.1 |
| 20260510162153 | 22 | 230 | 3.2 | 8.0 | 0.00 | 0.00 | 0.00 | 93 | 1015.1 |
| 20260510161653 | 22 | 205 | 3.2 | 6.4 | 0.00 | 0.00 | 0.00 | 93 | 1015.0 |
| 20260510161153 | 21 | 210 | 3.2 | 8.0 | 0.00 | 0.00 | 0.00 | 94 | 1014.9 |
| 20260510160653 | 21 | 247 | 1.6 | 3.2 | 0.00 | 0.00 | 0.00 | 94 | 1014.8 |
| 20260510160153 | 21 | 217 | 1.6 | 4.8 | 0.00 | 0.00 | 0.00 | 97 | 1014.7 |
| 20260510153653 | -17 | 767 | 410.4 | 410.4 | 0.00 | 0.00 | 0.00 | ||
| 20260510152653 | -17 | 767 | 410.4 | 410.4 | 0.00 | 0.00 | 0.00 | ||
| 20260510152153 | 20 | 221 | 1.6 | 4.8 | 0.00 | 0.00 | 0.00 | 100 | 1014.4 |
| 20260510151653 | 20 | 221 | 1.6 | 4.8 | 0.00 | 0.00 | 0.00 | 100 | 1014.4 |
| 20260510151153 | 20 | 223 | 1.6 | 4.8 | 0.00 | 0.00 | 0.00 | 100 | 1014.4 |
| 20260510150653 | 19 | 227 | 1.6 | 4.8 | 0.00 | 0.00 | 0.00 | 100 | 1014.5 |
| 20260510150153 | 19 | 227 | 1.6 | 3.2 | 0.00 | 0.00 | 0.00 | 100 | 1014.4 |
| 20260510145653 | 19 | 229 | 1.6 | 4.8 | 0.00 | 0.00 | 0.00 | 100 | 1014.4 |
| 20260510145153 | 19 | 219 | 1.6 | 4.8 | 0.00 | 0.00 | 0.00 | 100 | 1014.5 |
| 20260510144653 | 19 | 219 | 1.6 | 3.2 | 0.00 | 0.00 | 0.00 | 100 | 1014.6 |
| 20260510144153 | 19 | 219 | 1.6 | 4.8 | 0.00 | 0.00 | 0.00 | 100 | 1014.4 |
| 20260510143653 | 18 | 218 | 1.6 | 4.8 | 0.00 | 0.00 | 0.00 | 100 | 1014.3 |
| 20260510143153 | 18 | 216 | 3.2 | 4.8 | 0.00 | 0.00 | 0.00 | 100 | 1014.6 |
| 20260510142653 | 18 | 237 | 3.2 | 4.8 | 0.00 | 0.00 | 0.00 | 100 | 1014.5 |
| 20260510142153 | 18 | 237 | 3.2 | 6.4 | 0.00 | 0.00 | 0.00 | 100 | 1014.5 |
| 20260510141653 | 18 | 221 | 3.2 | 6.4 | 0.00 | 0.00 | 0.00 | 100 | 1014.5 |
| 20260510141248 | 18 | 229 | 1.6 | 6.4 | 0.00 | 0.00 | 0.00 | 100 | 1014.5 |
| 20260510141153 | 18 | 229 | 1.6 | 6.4 | 0.00 | 0.00 | 0.00 | 100 | 1014.5 |
| 20260510140653 | 18 | 236 | 1.6 | 6.4 | 0.00 | 0.00 | 0.00 | 100 | 1014.5 |